RH
96 98 98 97 90 86 84 88 81 74 72 66 50 49 49 46 46 40 29 17 8 8 10 12 12 14 16 18 19 20 22 23 24 24 23 21 20 21 21 20 19 19 18
98 97 98 99 98 90 92 92 86 81 73 66 54 57 51 45 44 39 33 18 8 8 10 14 14 16 18 19 20 21 22 24 25 25 25 23 21 21 21 20 19 20 21
99 97 99 97 99 96 95 90 90 81 75 67 63 66 54 43 42 40 35 22 10 10 11 13 17 19 19 20 20 20 21 24 25 26 27 25 22 21 22 22 21 20 23
99 98 98 98 99 96 92 98 92 87 78 70 70 69 56 44 43 42 37 26 14 13 13 14 16 17 19 19 19 17 18 23 23 25 27 28 25 22 21 22 21 21 23
94 96 99 99 99 97 94 98 90 84 72 73 78 72 55 44 46 45 41 33 27 15 17 18 17 17 18 18 16 14 18 21 23 24 26 30 29 26 22 22 22 24 25
93 88 84 82 79 89 89 94 91 63 65 69 73 75 54 44 48 46 42 35 33 23 23 22 22 19 17 16 14 15 16 19 22 23 27 32 32 30 26 22 24 25 26
89 95 81 68 58 59 66 73 70 62 66 76 78 76 58 41 50 48 45 39 37 36 34 29 25 23 19 16 14 13 15 17 22 23 27 33 33 31 30 26 23 25 26
94 95 89 78 54 53 52 53 63 66 82 85 84 79 59 39 47 48 45 40 38 40 37 34 30 26 22 19 16 15 16 17 21 24 27 32 34 34 31 30 25 25 28
87 87 88 82 79 59 53 53 61 68 84 91 90 84 70 46 39 48 43 40 38 39 39 36 33 29 24 24 19 20 19 20 22 24 27 32 35 36 33 30 28 25 28
84 91 90 80 78 70 63 63 63 64 80 88 93 87 81 44 43 48 42 40 37 37 38 38 37 34 30 26 24 23 22 24 26 29 31 34 37 36 35 33 32 28 28
78 90 87 88 80 76 74 79 73 75 77 86 95 99 93 44 45 46 41 39 38 36 36 37 39 38 34 30 28 28 29 29 29 32 35 38 39 39 38 37 37 33 30
84 82 87 89 80 83 81 91 89 89 93 88 94 95 86 50 36 42 44 43 38 36 38 38 38 38 37 35 36 36 34 33 33 36 39 43 46 44 42 43 43 37 32
89 82 84 74 78 84 83 90 97 98 99 96 96 95 86 59 34 41 53 47 42 40 39 41 43 40 39 42 44 43 40 39 40 40 41 48 52 51 48 49 46 38 33
89 86 78 76 76 79 79 86 95 98 98 98 99 98 89 64 45 36 58 53 46 44 42 41 43 45 47 48 48 46 45 48 47 44 45 50 58 59 60 56 49 42 35
85 87 89 75 67 68 84 87 91 93 98 99 98 96 89 69 46 36 60 60 54 49 44 42 43 44 46 48 49 49 51 55 53 50 50 51 62 64 64 62 55 45 38
85 88 91 76 72 65 68 87 86 91 95 98 97 95 89 64 44 39 57 61 55 61 52 51 51 48 46 47 49 52 58 56 53 54 54 59 62 69 68 68 59 51 44
82 83 88 88 77 71 64 66 78 79 91 95 98 92 80 67 53 39 44 55 61 58 59 57 58 57 52 49 50 57 58 56 55 57 62 64 69 75 75 73 65 57 53
88 88 86 97 78 70 77 76 71 74 82 82 78 77 70 61 45 30 36 60 60 62 66 63 64 61 58 59 60 59 61 58 62 64 63 69 74 78 83 76 71 63 54
96 95 94 95 95 73 73 76 82 74 74 79 66 55 45 41 42 48 49 45 58 70 73 71 64 64 67 70 67 64 66 66 64 62 67 72 77 80 80 78 72 69 61
90 99 92 94 92 88 74 79 82 76 69 70 70 60 53 55 51 49 45 35 49 73 80 76 71 71 73 76 73 66 70 67 58 62 71 78 77 82 82 80 78 74 63
90 92 94 96 93 95 87 79 79 85 66 73 76 73 59 50 42 36 31 29 39 54 74 76 72 70 71 71 66 65 66 61 64 67 75 74 72 71 79 82 84 76 65
88 85 94 90 96 96 88 78 72 80 74 58 69 79 73 67 60 49 38 32 31 33 39 48 52 53 52 56 59 56 56 64 76 76 73 70 69 69 79 85 84 74 71
63 70 76 94 93 95 95 99 80 67 72 63 56 65 79 76 69 62 55 47 41 34 36 38 42 45 48 49 58 57 61 71 74 74 75 70 71 77 81 88 83 74 70
51 62 68 83 88 85 93 89 99 82 69 58 56 58 65 70 61 62 61 55 57 39 34 34 35 35 44 50 56 63 72 77 79 81 78 76 77 83 88 91 87 79 65
45 46 62 73 90 88 82 98 98 97 91 72 53 52 57 63 60 57 52 55 59 54 54 46 38 34 37 51 63 68 70 74 77 76 84 84 83 90 96 94 91 82 67
43 45 47 67 82 81 76 79 93 98 98 97 73 55 56 55 59 54 51 48 47 50 47 49 44 39 42 51 63 68 67 76 80 87 88 92 92 94 96 97 93 83 72